Tracking 28794 objects as of 21-Apr-2024
HD Live streaming from Space Station
objects crossing your sky now

SHIYAN 13 (SY-13)

Track SHIYAN 13 (SY-13) now!
10-day predictions


NORAD ID: 51102
Int'l Code: 2022-004A
Perigee: 398.5 km
Apogee: 1,312.8 km
Inclination: 98.5 °
Period: 101.9 minutes
Semi major axis: 7226 km
RCS: Unknown
Launch date: January 17, 2022
Source: People's Republic of China (PRC)
Launch site: Taiyaun Space Center, China (TSC)
Your satellite tracking list
Your tracking list is empty




NASA's NSSDC Master Catalog

Two Line Element Set (TLE):
1 51102U 22004A   24112.63569131  .00006632  00000-0  46864-3 0  9999
2 51102  98.5358 150.1981 0632570 319.5640 151.8034 14.13182006115875
Source of the keplerian elements: AFSPC